This demonstration page uses our WeatherBlox Daily Observations layout. Learn more.

Left ArrowRight Arrow

39.92423, -83.80882

Hourly Observations for March 9, 2020

Temp ( °F °C ) Dew Point ( °F °C ) Humidity (%) Winds ( mph kmh ) Pressure ( in mb ) Visibility ( mi km ) Precip ( " mm )
12:56 am 00:56 Clear 51 10.6 29 -1.7 43 43 SW 10 17 30.32 1027 10 16.0934 0 0
1:56 am 01:56 Clear 49 9.4 29 -1.7 46 46 SW 7 11 30.32 1027 10 16.0934 0 0
2:56 am 02:56 Clear 49 9.4 29 -1.7 46 46 SSW 12 19 30.32 1027 10 16.0934 0 0
3:56 am 03:56 Mostly Clear 50 10 29 -1.7 44 44 SSW 14 22 30.31 1026 10 16.0934 0 0
4:56 am 04:56 Mostly Clear 49 9.4 29 -1.7 46 46 SSW 13 20 30.3 1026 10 16.0934 0 0
5:56 am 05:56 Clear 49 9.4 29 -1.7 46 46 SW 14 22 30.31 1026 10 16.0934 0 0
6:56 am 06:56 Cloudy 49 9.4 30 -1.1 48 48 SW 18 30 30.32 1027 10 16.0934 0 0
7:56 am 07:56 Cloudy 49 9.4 30 -1.1 48 48 SW 16 26 30.32 1027 10 16.0934 0 0
8:56 am 08:56 Sunny 49 9.4 32 0 52 52 SW 21 33 30.32 1027 10 16.0934 0 0
9:56 am 09:56 Sunny 52 11.1 32 0 47 47 SW 21 33 30.34 1027 10 16.0934 0 0
10:56 am 10:56 Sunny 55 12.8 35 1.7 47 47 SW 24 39 30.33 1027 10 16.0934 0 0
11:56 am 11:56 Mostly Sunny 58 14.4 40 4.4 51 51 SW 24 39 30.33 1027 10 16.0934 0 0
12:56 pm 12:56 Sunny 59 15 42 5.6 54 54 SW 22 35 30.32 1027 10 16.0934 0 0
1:56 pm 13:56 Sunny 62 16.7 41 5 46 46 SW 24 39 30.29 1026 10 16.0934 0 0
2:56 pm 14:56 Sunny 62 16.7 40 4.4 44 44 SW 20 31 30.26 1025 10 16.0934 0 0
3:56 pm 15:56 Sunny 62 16.7 38 3.3 41 41 SSW 12 19 30.24 1024 10 16.0934 0 0
4:56 pm 16:56 Sunny 63 17.2 37 2.8 38 38 SSW 12 19 30.22 1023 10 16.0934 0 0
5:56 pm 17:56 Sunny 63 17.2 39 3.9 41 41 S 13 20 30.2 1023 10 16.0934 0 0
6:56 pm 18:56 Mostly Sunny 62 16.7 39 3.9 43 43 SSW 13 20 30.19 1022 10 16.0934 0 0
7:56 pm 19:56 Partly Cloudy 60 15.6 39 3.9 46 46 S 16 26 30.18 1022 10 16.0934 0 0
8:56 pm 20:56 Mostly Cloudy 60 15.6 42 5.6 52 52 SSW 12 19 30.18 1022 10 16.0934 0 0
9:56 pm 21:56 Mostly Clear 58 14.4 43 6.1 58 58 S 13 20 30.14 1021 10 16.0934 0 0
10:56 pm 22:56 Cloudy 59 15 44 6.7 58 58 SSW 15 24 30.13 1020 10 16.0934 0.001 0.001
11:56 pm 23:56 Cloudy with Light Rain 58 14.4 46 7.8 65 65 SSW 21 33 30.1 1019 10 16.0934 0.001 0.001

Powered by AerisWeather